Погода в Стерлитамаке

Погода в Стерлитамаке : погода сейчас, прогноз погоды и архив. Всё, что Вы хотите узнать о погоде в Стерлитамаке!

Хотите узнать прогноз погоды в Стерлитамаке? Тогда Вам сюда: Погода в Стерлитамаке

Поиск расширенной информации на нашем сайте:

Другие новости

Новости СМИ2

Главная страница сайта

Новости сайта

03.07.2017

Напоминаем, что на нашем специализированном сайте Метеоцентр.Азия вы можете получить высокодетализированные автоматические прогнозы погоды по пунктам России, СНГ и мира в авиационном формате (включающие направление и скорость ветра, видимость, явления погоды, количество и форму облачности, нижнюю и верхнюю границу облачности).

Рекомендуем: см тут аренда офиса в бп курский арма завод Нижний Сусальный пер. на выгодных условиях

Погода в Стерлитамаке - сегодня

Время (UTC), дата Ветер
(°,м/с) 
Видим.   Явления Облачность Т
(°С)
Тd
(°С)
f(%) Тe
(°С)
Pmin
(гПа)
dP
(гПа)
Po
(мм)
O2
(г/м3)
Тmin Tmax R s Состояние
почвы
12 08.12.17 010 (С) 10 км    9/0 средняя 
[Ac As]
-3 -6.6 76 -4  1010.7  -0.3  745  304           
15 08.12.17 020 (С) 10 км    10/4 1000 м средняя 
[Sc|As op]
-3.3 -6.4 79 -4  1011  0.3  745  305    -2.1       
18 08.12.17 010 (С) 10 км    10/4 1000 м средняя 
[Sc|As op]
-3.5 -6.4 80 -5  1010.8  -0.2  745  305           
21 08.12.17 350 (С) 10 км    10/0 средняя 
[Ac As]
-5.2 -7.7 83 -8  1011.2  0.3  745  307           
00 09.12.17 360 (С) 3{10}  10 км  {снег}  10/0 средняя 
[Ac As]
-5.1 -8 80 -7  1011.1  0.1  745  307           
03 09.12.17 360 (С) 4{10}  10 км    9/9 1000 м 
[Sc]
-4.6 -8 77 -8  1011.9  0.9  746  307  -5.7    0.0  равномерный
сухой снег
100% 
06 09.12.17 350 (С) 4{13}  10 км    8/8 600 м кучево-дожд. 
[Cb cap]
-6 -9.7 75 -9  1013.2  1.1  747  309  -6         
09 09.12.17 350 (С) 4{11}  10 км    9/9 600 м кучево-дожд. 
[Cb cap]
-5.6 -10.5 68 -9  1013.4  0.2  747  308           
12 09.12.17 350 (С) 3{11}  4000 м  слаб. ливневой снег  10/6 600 м кучево-дожд., верхняя 
[Cb cap|Ci fib]
-6.4 -10.4 73 -9  1014.8  1.4  748  310           
15 09.12.17 340 (С) 5-12{12}  10 км  позёмок{ливн. осадки}  9/9 600 м кучево-дожд. 
[Cb cap]
-7.8 -12.3 70 -12  1015.9  0.9  749  312    -4.6  0.0     
18 09.12.17 320 (СЗ) 3{12}  4000 м  слаб. ливневой снег  10/10 600 м кучево-дожд. 
[Cb cap]
-8.4 -12.4 73 -11  1016.7  0.8  749  313           
21 09.12.17 330 (СЗ) 4000 м  слаб. ливневой снег  10/10 600 м кучево-дожд. 
[Cb cap]
-9.5 -12.8 77 -12  1018.5  1.7  750  314           
00 10.12.17 350 (С) 10 км  {ливн. осадки}  9/9 600 м кучево-дожд. 
[Cb cap]
-10.5 -14.1 75 -12  1020.2  1.6  752  316           
03 10.12.17 330 (СЗ) 10 км  {ливн. осадки}  9/6 600 м кучево-дожд., верхняя 
[Cb cap|Ci fib]
-11.5 -15.1 75 -13  1022  1.7  753  318  -11.5    0.6  равномерный
сухой снег
100% 
06 10.12.17 260 (З) 10 км  {ливн. осадки}  9/1 1000 м верхняя 
[Sc|Cs]
-11.4 -14.9 75 -11  1023.8  1.7  754  318  -12.2         
09 10.12.17 310 (СЗ) 10 км  слаб. снег  9/0 средняя 
[Ac As]
-9.3 -14.1 68 -11  1025  1.7  755  316           
12 10.12.17 300 (СЗ) 10 км  {снег}  ясно 
-9.9 -14.4 70 -10  1026.4  1.3  756  317           
15 10.12.17 тихо ()   10 км    4/0 средняя 
[Ac trans]
-14.6 -17 82 -15  1028.3  1.5  757  324    -9.1  0.0     
18 10.12.17 тихо ()   10 км    8/0 средняя 
[Ac trans]
-15.7 -18.2 81 -16  1029.5  1.1  758  326           
21 10.12.17 310 (СЗ) 10 км    3/0 средняя 
[Ac trans]
-17.7 -20.5 79 -18  1030.5  0.8  759  329           
00 11.12.17 тихо ()   10 км    ясно 
-18.8 -21.6 78 -19  1031.7  1.1  760  330           
03 11.12.17 тихо ()   10 км    ясно 
-19.6 -22.6 77 -20  1032.4  0.6  760  332  -19.6      равномерный
сухой снег
100% 
06 11.12.17 190 (Ю) 0200 м  мгла{туман}  н/о 
-16.8 -19.6 79 -17  1033.2  761  328  -19.9         
09 11.12.17 тихо ()   0500 м  мгла{туман}  ясно 
-15.1 -17.6 81 -15  1033.2  0.2  761  326           
12 11.12.17 тихо ()   0500 м  мгла{туман}  ясно 
-14.8 -17.4 81 -15  1034  0.7  762  326           
Время (UTC), дата Ветер
(°,м/с) 
Видим.   Явления Облачность Т
(°С)
Тd
(°С)
f(%) Тe
(°С)
Pmin
(гПа)
dP
(гПа)
Po
(мм)
O2
(г/м3)
Тmin Tmax R s Состояние
почвы

Для получения пояснительной информации подведите курсор к названию столбца.

ПОГОДА в Стерлитамаке - архив

Всё, что Вы хотите узнать о погоде в Стерлитамаке - удобно и подробно!

Выберите нужную дату (начиная с 1 января 2015* года) и нажмите кнопку "Найти".
Будут отображены архивные сводки погоды по пункту Стерлитамак, начиная с указанной даты.


Отображать данные в формате CSV (для использования в таблицах Excel)


Внимание! Наш архив погоды предназначен исключительно для личного некоммерческого использования в познавательных целях. Если Вам необходимы официальные справки о состоянии погоды (для производственных, юридических, коммерческих и т.п. целей), обращайтесь в органы Росгидромета.

*Примечание: данная дата относится к архиву по метеостанциям СССР (Россия, СНГ, Балтия).
Архив по метеостанциям Зарубежной Европы и Азии (кроме Китая) хранится 10 дней, по другим регионам земного шара (Китай, Африка, Америка, Австралия, Океания) - 1 день.

Стерлитамак - район местоположения метеостанции


Название, широта, долгота, высота метеостанции:
Стерлитамак 53.6°ш. 56°д. 137 м над ур. моря [Российская Федерация]

Дополнительная информация

В oтличие oт бoльшинства пoгoдных сайтoв мы публикуем пoдрoбную метеoинфoрмацию в детальнoм прoфессиoнальнoм фoрмате.

Характеристики температуры и влажнoсти вoздуха измеряются на высoте 2 м в тени вдали oт зданий и деревьев.
Скoрoсть ветра измеряется на высoте 10 м (на урoвне рoста челoвека скoрoсть ветра ниже в 1.5-2 раза). Если метеoстанция нахoдится в гoрoде или в лесу, тo скoрoсть ветра занижена на 2-4 м/с пo сравнению с oткрытым местoм. Скoрoсть ветра над акватoриями крупных рек и oзёр, а также на вершинах хoлмoв на 2-5 м/с выше, чем в oбычных услoвиях.
Атмoсфернoе давление в разных тoчках местнoсти мoжет значительнo oтличаться oт давления на метеoстанции, в зависимoсти oт услoвий рельефа (при пoдъёме на 10 м давление пoнижается примернo на 1 мм рт.ст.).